SCOUT A DEB, 2989

Orbit data source: Space-Track

SCOUT A DEB, 2989 is space debris in LEO originally from a launch on Fri, 28 Jan 1966 UTC launched from the Air Force Western Test Range (AFWTR). Debris objects in space refer to the collection of defunct objects orbiting the Earth. Examples of debris include non-operational satellites, rocket bodies, and fragments generated from explosions, collisions, or faulty payload assembly.

Loading next visibility...
Identifier
2989, 1966-005F
Orbit
LEO
Country
Flag of USUS
Related business
Manufacturer
Unknown
Mission
Spacecraft
Bus & Motor
Unknown
Mass
Unknown
Launch date (UTC)
1966-01-28 (60 years ago)
Launch vehicle
Unknown
Launch site
Air Force Western Test Range (AFWTR)
Object type
Payload
Rocket body
Debris
Shape & HBR
Unknown
Radar Cross Section
Small (<0.1 m²)

Expand to show TLE details & history
Last TLE update: 21 hours ago

TLE from 21 hours ago
0 SCOUT A DEB
1 02989U 66005F   25242.12047047  .00000568  00000-0  35606-3 0  9997
2 02989  89.6665 295.0803 0111453  88.7610 272.6335 14.00259291956261
Epoch: 2025-08-30T02:53Z
TLE epoch observation values (Epoch: 2025-08-30T02:53:28.648Z)
Latitude
-0.00001°
Longitude
-86.84839°
Altitude
893.102 km
Speed
7.407 km/s
True Right ascension
19h 40m 19s
True Declination
0° 00' 00"
Sunlit
Object was in full shadow at epoch
Visualization orbit readout
Latitude
Unknown
Longitude
Unknown
Altitude
Unknown
Speed
Unknown
Apparent Right ascension
Unknown
Apparent Declination
Unknown
Sunlit
N/A
Visualization observer readout
Local Sidereal Time
15:31:59
Azimuth
Unknown
Elevation
Unknown
Doppler factor
Unknown
Orbital elements
Apogee altitude
970.878 km
Perigee altitude
808.87 km
Semi-major axis
7,268.011 km
Eccentricity
0.01115
Inclination
89.6665°
RAAN
295.0803°
Arg. of periapsis
88.761°
True anomaly
271.35698°
Mean anomaly
272.6335°
Eccentric anomaly
271.99531°
Mean motion
3.50284 °/min
Orbital period
102.77 mins
BSTAR
0.00035606
Loading maneuver chart data...
Computing Atmospheric mass density...
Loading historical data...
Loading historical data...
Loading historical data...
Loading historical data...
Loading historical data...
Loading historical data...
Loading historical data...

Documentation

Showing up to 5 results
|